Flag for Germany Weather past 2 weeks in Bernau bei Berlin, Brandenburg, Germany

Now
44 °F

Scattered clouds.


Feels Like: 42 °F
Forecast: 33 / 56 °F
Wind: 5 mph from Northwest

Location: Berlin-Tegel

Current Time: Apr 18, 2015 at 10:52:33 AM

Latest Report: Apr 18, 2015 at 10:00 AM


Visibility: 22 mi

Pressure: 30.28 "Hg

Humidity: 69%

Dew point: 35 °F

Location of Bernau bei BerlinLocation

Historic Weather in Bernau bei Berlin — Graph

°F

Bernau bei Berlin temperature yesterday

Maximum temperature yesterday: 53 °F (at 7:00 PM)
Minimum temperature yesterday: 35 °F (at 5:00 AM)
Average temperature yesterday: 45 °F

Past Weeks' High & Low Weather Summary

 TemperatureHumidityPressure
High73 °F (Apr 15, 5:00 PM)100% (Apr 7, 6:00 AM)30.57 "Hg (Apr 7, 6:00 AM)
Low26 °F (Apr 5, 4:00 AM)24% (Apr 5, 4:00 PM)29.81 "Hg (Apr 15, 7:00 PM)
Average48 °F63%30.19 "Hg
* Reported Apr 3 10:00 AM — Apr 18 10:00 AM, Bernau bei Berlin, Weather by CustomWeather, © 2015

Note: Actual official high and low records may vary slightly from our data, if they occured in-between our weather recording intervals... More about our weather records

Advertising

Bernau bei Berlin weather history for previous 24 hours

 ConditionsComfort  
Time TempWeatherWind HumidityBarometerVisibility
10:00 AM
Sat, Apr 18
44 °FScattered clouds.5 mph69%30.28 "Hg22 mi
9:00 AM42 °FPassing clouds.3 mph81%30.28 "Hg17 mi
8:00 AM38 °FSunny.2 mph92%30.27 "Hg16 mi
7:00 AM35 °FSunny.1 mph97%30.25 "Hg16 mi
6:00 AM35 °FClear.1 mph96%30.24 "Hg19 mi
5:00 AM36 °FClear.2 mph94%30.22 "Hg25 mi
4:00 AM37 °FClear.2 mph92%30.21 "Hg25 mi
3:00 AM38 °FClear.2 mph90%30.19 "Hg25 mi
2:00 AM39 °FClear.3 mph88%30.17 "Hg25 mi
1:00 AM41 °FPassing clouds.3 mph84%30.15 "Hg25 mi
12:00 AM42 °FPassing clouds.3 mph82%30.12 "Hg25 mi
11:00 PM
Fri, Apr 17
43 °FPassing clouds.3 mph78%30.10 "Hg25 mi
10:00 PM44 °FOvercast.3 mph76%30.07 "Hg25 mi
9:00 PM45 °FOvercast.2 mph72%30.05 "Hg25 mi
8:00 PM47 °FSprinkles. Partly sunny.5 mph59%30.03 "Hg25 mi
7:00 PM53 °FScattered clouds.6 mph36%29.98 "Hg22 mi
6:00 PM52 °FScattered clouds.5 mph40%29.97 "Hg28 mi
5:00 PM52 °FScattered clouds.6 mph41%29.97 "Hg28 mi
4:00 PM51 °FPassing clouds.6 mph44%29.98 "Hg25 mi
3:00 PM50 °FOvercast.6 mph51%29.98 "Hg22 mi
2:00 PM50 °FOvercast.3 mph56%29.98 "Hg22 mi
1:00 PM48 °FOvercast.5 mph61%29.98 "Hg19 mi
12:00 PM47 °FOvercast.5 mph66%29.98 "Hg17 mi
11:00 AM46 °FPartly sunny.5 mph67%29.98 "Hg17 mi
10:00 AM44 °FPartly sunny.3 mph79%29.97 "Hg17 mi
Weather by CustomWeather, © 2015

See weather overviewHow to use our weather pages